Dewpoint
58 58 57 58 58 58 57 56 53 49 49 52 51 54 54 53 53 53 51 49 46 46 46 46 47 48 48 48 49 49 50 49 48 48 47 46 46 46
57 57 57 58 57 58 58 57 55 54 50 51 51 53 53 52 52 52 51 49 45 44 44 44 45 46 47 47 47 47 46 46 45 44 43 43 43 43
56 56 56 57 57 58 55 54 54 53 51 52 52 52 52 51 51 51 51 49 46 44 43 43 44 44 45 44 44 45 45 45 45 44 43 43 43 43
55 56 56 56 57 55 54 53 53 54 53 50 52 49 50 48 47 44 45 46 46 45 44 43 43 42 42 42 41 41 41 41 42 42 42 41 41 42
55 55 55 55 54 54 53 54 54 53 53 51 50 43 42 43 43 44 44 44 44 44 42 41 41 41 41 40 39 39 39 39 38 38 38 38 38 37
55 50 44 43 43 47 53 52 51 51 48 47 42 39 40 40 40 39 39 41 41 42 44 41 41 41 41 39 38 37 36 36 36 36 36 36 35 35
39 37 37 37 37 36 40 38 41 41 40 38 35 35 35 35 35 37 36 36 37 39 38 38 38 36 33 37 35 36 36 35 35 36 35 35 36 37
35 34 34 34 34 34 33 33 33 34 33 33 32 32 31 32 32 32 32 32 31 37 34 33 35 34 31 30 32 33 35 35 36 37 37 37 36 36
33 32 32 32 33 32 32 32 32 32 31 32 30 30 31 31 32 31 32 31 31 34 32 31 30 29 28 25 31 32 35 35 34 34 35 35 35 34
30 30 30 31 32 32 31 30 29 30 30 31 31 30 30 30 29 25 24 24 25 25 26 25 27 26 27 27 31 33 33 33 34 35 35 34 33 34
30 29 28 29 31 32 30 30 30 28 29 27 26 24 23 24 25 24 25 24 22 22 25 24 24 27 27 26 28 31 32 31 30 31 34 34 34 34
27 28 29 28 27 28 29 27 25 22 26 25 24 25 25 25 24 23 26 23 23 20 22 21 22 23 20 23 24 23 24 26 28 28 29 30 30 29
25 24 24 25 26 27 24 23 22 22 25 24 23 23 24 25 24 23 21 20 19 18 20 20 19 18 18 17 16 18 19 19 21 24 27 28 28 29
25 24 24 26 24 24 23 23 25 25 23 21 21 21 19 17 16 17 18 19 19 20 20 21 20 20 19 17 15 15 17 20 22 22 23 24 27 28
25 25 25 26 24 25 25 25 23 21 19 18 17 14 13 13 13 15 15 15 14 14 12 14 14 14 16 18 17 19 20 17 20 22 24 25 25 28
26 26 25 26 25 23 21 21 19 18 17 14 13 11 12 12 11 12 11 10 10 10 10 13 13 14 14 16 16 15 14 14 15 17 18 19 21 23
26 23 20 19 17 16 16 14 14 13 12 11 11 10 9 9 9 10 9 9 7 7 7 8 11 11 11 11 10 9 10 12 17 20 20 19 22 23
20 18 17 16 14 12 12 11 11 10 10 10 10 9 8 9 8 8 8 8 6 6 6 6 5 7 7 8 11 11 13 11 11 11 13 15 16 19
16 15 13 11 10 10 10 9 9 10 11 9 8 9 9 8 7 6 7 7 6 5 4 5 7 8 6 4 6 9 7 9 10 11 14 16 16 18
12 11 10 10 9 9 9 9 9 9 8 8 7 6 5 6 6 5 5 4 4 5 5 5 5 6 5 5 6 9 13 11 12 14 14 15 19 22
9 9 9 9 9 9 6 6 3 5 3 1 4 3 -1 6 4 4 4 4 4 4 3 3 5 9 9 10 5 5 8 12 12 13 17 17 15 17
9 8 9 9 7 7 4 3 3 2 3 3 -1 -1 0 4 3 3 4 4 5 4 3 4 5 7 6 5 4 4 6 9 13 15 16 16 17 14
7 7 6 6 6 5 6 4 3 -1 3 3 4 4 1 2 4 4 5 4 3 3 4 4 4 4 5 5 5 6 8 10 12 14 16 21 23 24
Lifted_Index
-0 -0 -0 -1 -1 -0 0 1 2 3 3 3 3 3 3 3 4 4 4 4 4 4 4 5 6 8 7 6 6 6 7 7 8 9 9 9 9 9
-0 -0 -0 -0 -0 -0 -0 1 1 2 3 3 3 3 3 3 3 3 3 4 4 4 4 5 6 7 6 6 6 7 7 8 9 9 10 10 9 9
0 0 -0 -0 -0 -0 0 1 1 2 3 3 3 3 3 2 2 3 3 3 4 4 4 5 6 6 6 6 7 8 8 9 10 10 11 11 10 10
0 0 0 0 -0 0 0 1 1 2 2 2 2 2 2 2 2 3 3 4 4 5 5 5 6 7 8 8 9 9 10 10 10 11 11 11 11 11
0 0 0 0 0 0 0 1 1 1 2 2 2 2 3 3 4 4 4 5 5 6 7 7 8 9 10 10 11 11 11 11 11 11 11 12 12 13
0 0 0 0 0 1 1 1 1 1 2 2 2 3 4 4 5 6 6 6 7 8 9 10 10 11 12 12 12 12 12 12 12 12 12 13 14 14
0 0 0 1 1 1 1 2 2 2 2 3 3 4 5 6 7 7 7 7 8 10 11 11 11 12 13 14 14 14 14 14 15 14 14 14 15 15
0 1 1 1 2 3 3 4 5 5 5 5 5 6 7 8 9 10 9 9 10 11 11 11 12 12 13 15 15 15 16 16 16 15 15 15 15 15
1 1 2 4 5 6 7 7 8 9 9 9 9 9 10 11 12 12 12 11 12 13 13 12 13 14 15 16 16 16 16 15 15 15 15 15 15 15
3 4 5 7 8 9 10 10 11 12 13 13 13 14 14 15 15 14 14 13 14 15 16 15 16 16 17 17 17 17 16 16 15 15 15 15 14 14
7 8 9 10 11 12 11 11 12 13 15 16 17 18 18 19 19 18 17 16 16 17 19 19 19 19 19 19 19 18 17 17 16 16 15 14 13 12
9 10 12 12 13 14 14 14 14 16 17 18 19 20 21 22 22 21 20 20 20 20 21 22 22 22 21 21 21 20 19 18 17 16 15 13 12 11
11 12 14 15 16 17 18 18 18 19 20 20 21 22 22 23 23 23 23 23 23 23 24 24 24 24 23 23 23 22 21 19 18 16 14 12 10 9
14 16 17 19 20 21 21 22 22 22 22 22 22 23 24 24 25 25 25 26 26 26 26 26 26 25 24 24 23 22 21 19 17 15 13 11 9 8
19 20 21 22 23 24 24 24 24 24 24 23 24 25 26 27 27 27 27 28 28 28 27 27 26 25 24 22 21 20 19 17 16 14 12 10 9 8
22 22 23 24 24 25 25 25 25 25 25 25 26 27 28 28 28 29 29 29 29 28 28 26 25 23 22 20 19 18 17 16 14 13 11 10 8 7
23 24 24 24 24 24 25 25 26 26 26 27 27 28 28 28 29 29 30 29 28 27 26 24 23 21 20 18 17 16 16 15 13 12 10 9 8 7
24 23 23 23 24 24 24 25 26 27 28 28 28 28 28 28 29 29 29 27 26 24 23 22 21 20 18 17 15 15 14 14 12 11 10 9 7 7
24 23 23 24 24 25 25 26 26 27 28 29 29 29 29 28 28 27 25 24 22 21 20 19 18 18 16 15 14 13 13 13 12 11 10 9 8 7
24 24 24 24 25 26 26 27 27 28 29 29 29 29 28 27 25 23 21 20 19 18 18 17 16 15 14 14 13 12 12 12 11 10 10 9 7 6
24 25 25 26 26 27 27 28 28 28 29 29 28 28 26 24 21 20 19 18 18 17 16 15 14 14 13 13 12 12 12 11 11 10 9 8 6 5
25 26 26 27 27 27 28 28 28 28 28 27 26 24 22 20 19 18 18 17 17 16 15 14 13 13 12 12 12 11 11 10 10 9 8 7 5 3
26 26 27 27 27 28 28 28 28 28 27 25 24 22 20 19 18 18 17 17 16 15 15 14 13 13 12 12 12 11 10 10 8 7 6 5 4 3